Theta_e
313 313 313 313 313 313 314 314 314 315 315 314 314 314 314 314 314 313 312 313 313 313 314 314 314 315 315 315 315 315 314 313 312 312 311 316 321 325 325 324 325 329 327 311 312 312 311 311 311 312 310 309 307 306 309 309 309 307 301 298 296 298 298 302 301 303 304 303 304 306 306 305 304 307 309 313 311 309 309 310 316 324 326 331 336 339 340 340
313 314 314 313 314 314 315 314 315 315 315 315 315 315 315 315 314 314 314 313 313 314 314 314 314 314 315 315 315 315 313 312 312 312 312 322 326 324 322 331 327 325 323 309 310 311 310 308 309 310 308 305 309 305 309 305 310 303 301 299 296 299 301 305 305 306 304 303 305 306 307 306 305 307 310 306 307 309 307 308 317 320 329 333 337 339 338 340
313 313 314 314 314 314 314 314 314 314 315 315 315 315 315 315 315 315 315 314 314 314 314 314 314 314 315 315 315 315 314 312 314 311 316 327 328 325 327 326 328 326 310 308 311 312 310 310 310 309 307 304 306 303 306 304 307 305 301 297 298 303 303 305 307 306 306 306 304 305 306 306 307 307 311 307 307 309 307 305 309 319 324 330 335 336 339 340
313 313 313 314 314 314 314 314 314 314 315 315 315 315 315 315 315 315 315 315 315 314 314 314 314 314 315 314 315 315 313 313 309 313 320 325 324 329 326 327 327 324 311 310 313 313 313 311 311 309 305 303 304 306 303 305 304 305 301 297 300 304 303 305 307 306 306 306 305 305 306 305 306 308 308 307 305 306 309 309 308 321 323 329 334 335 338 338
312 312 313 313 313 314 314 314 314 314 315 315 315 315 316 316 316 316 315 315 314 315 314 314 314 314 314 315 314 315 311 306 308 316 320 325 327 325 331 326 329 314 310 311 313 314 312 310 309 307 305 301 303 304 303 306 307 305 301 303 303 304 301 305 306 307 306 306 305 305 303 303 308 308 306 306 304 305 309 310 311 312 321 330 331 334 337 337
312 312 312 313 313 313 314 314 314 314 314 314 314 315 315 316 316 315 316 315 315 315 315 314 314 314 314 314 314 312 309 296 310 314 330 330 326 327 327 331 330 316 311 311 312 313 310 308 306 302 302 301 301 300 304 305 307 299 303 303 305 305 303 306 306 306 305 304 304 303 305 307 306 305 307 308 308 310 327 324 326 319 326 332 337 337 335 332
311 311 312 312 312 313 313 314 314 314 314 314 314 314 315 315 315 316 315 315 315 315 315 314 314 314 314 313 313 311 308 311 318 315 332 330 327 325 330 329 328 312 313 312 312 309 307 305 304 302 301 300 301 301 304 304 306 302 299 303 303 305 304 306 305 306 305 304 303 305 307 305 305 302 307 307 310 313 322 329 329 328 329 335 336 336 333 332
311 311 311 312 312 312 313 313 314 314 314 314 314 314 314 315 315 315 315 314 314 314 314 314 314 314 313 311 311 310 310 311 317 320 327 328 324 320 325 313 311 312 312 311 311 307 306 303 302 303 301 299 301 302 304 303 304 301 300 303 303 304 305 305 305 305 305 305 306 306 304 304 305 304 308 308 311 315 326 328 327 328 330 331 333 331 331 330
311 311 311 311 312 312 312 313 313 313 313 313 314 314 314 314 314 314 314 314 314 314 314 314 313 313 313 311 309 307 308 315 319 322 327 319 314 314 312 309 313 311 311 313 313 309 306 303 304 304 299 300 304 302 303 302 299 302 302 303 303 303 304 305 305 304 304 305 306 304 303 305 306 308 305 308 312 317 326 326 326 327 327 328 329 330 328 329
311 311 311 311 312 312 312 312 312 313 313 313 314 314 314 314 314 314 314 314 314 314 314 314 313 313 311 309 310 305 309 318 318 318 316 314 311 312 311 312 312 312 310 311 311 309 306 305 304 307 305 303 304 302 304 302 300 305 303 303 303 303 303 305 303 304 305 305 305 303 303 304 307 306 301 309 316 316 316 320 323 322 324 328 328 330 331 328
311 311 311 311 312 312 312 312 312 313 313 314 314 314 314 314 314 314 314 314 314 314 314 313 314 313 310 312 307 306 313 315 317 315 314 312 310 309 310 313 312 311 311 310 309 310 309 308 309 309 306 302 304 303 302 303 305 304 303 303 303 303 303 304 304 304 305 303 305 305 303 305 306 306 303 310 315 316 314 318 320 321 321 326 326 327 328 328
312 311 311 312 312 312 312 312 313 313 313 314 314 314 313 313 314 314 314 314 314 314 314 314 312 312 312 311 310 311 314 314 314 315 314 312 310 311 314 315 313 312 311 309 309 310 310 310 310 307 300 307 299 303 302 305 304 303 303 299 301 303 301 303 302 304 305 302 305 306 302 301 303 302 306 311 314 314 318 318 318 320 322 322 324 327 326 325
311 311 311 312 312 312 312 312 312 313 313 313 313 313 313 313 313 313 313 313 314 314 315 314 313 313 312 307 314 318 315 315 316 315 314 314 314 315 317 316 314 313 313 311 308 310 310 310 310 305 307 305 303 299 304 306 304 304 303 300 298 299 298 303 304 304 303 303 306 305 293 297 302 304 308 313 313 313 316 315 318 317 318 322 323 326 326 326
311 311 312 312 312 312 312 312 312 313 313 313 313 313 313 312 313 313 313 313 314 314 315 314 315 314 312 311 314 314 315 318 314 313 314 315 313 313 314 314 314 314 316 313 312 312 310 311 309 307 309 305 302 310 305 304 304 298 300 300 295 294 295 303 303 304 301 305 306 305 294 297 302 304 310 311 312 312 312 315 314 316 317 320 323 324 325 326
312 312 312 312 312 312 312 312 312 312 312 312 312 312 312 311 312 312 313 312 313 314 314 313 313 311 311 315 317 317 335 318 310 311 313 311 311 310 309 312 312 313 314 313 311 311 311 310 308 304 302 307 306 303 300 300 301 300 295 293 297 294 296 302 304 303 299 304 306 303 295 296 302 305 308 309 310 311 311 314 313 315 317 319 318 322 323 324
312 311 312 312 312 312 312 312 312 312 312 312 312 312 312 312 313 313 314 313 314 314 315 312 314 312 310 306 312 326 313 308 309 313 313 312 311 307 309 309 310 311 311 310 311 312 310 309 304 304 304 306 302 299 297 297 297 299 296 295 295 296 297 298 302 304 304 303 304 302 295 299 300 305 307 309 309 309 309 313 314 314 319 319 317 320 322 322
311 311 311 311 312 312 312 312 312 312 312 312 312 312 312 313 314 313 313 313 313 315 313 311 317 318 307 311 314 307 306 311 315 312 312 313 311 310 309 308 307 308 309 310 310 310 309 305 306 305 305 301 302 299 294 293 294 296 298 294 297 296 297 295 301 304 304 303 300 302 298 299 303 305 307 308 308 307 307 308 316 318 316 317 319 319 319 322
311 311 311 311 311 312 311 311 312 312 312 311 310 311 309 312 313 311 312 311 315 316 314 315 313 310 305 314 305 306 311 312 312 311 311 313 313 312 309 307 308 307 307 306 308 304 307 302 304 299 302 301 300 298 293 290 294 295 296 295 295 298 299 297 297 301 304 303 300 300 299 299 303 304 305 307 307 307 307 307 317 317 316 317 317 317 319 321
311 311 311 311 311 311 311 311 311 311 311 311 310 311 311 311 311 315 314 312 310 308 302 306 308 297 296 307 312 311 311 314 313 312 309 310 312 312 310 310 308 305 302 302 302 303 305 302 304 299 296 298 297 298 296 298 299 298 298 297 297 296 297 297 301 304 303 300 298 299 298 299 302 303 305 306 307 306 307 310 310 320 316 316 316 316 319 320
311 311 311 311 311 311 311 311 311 311 311 310 315 314 315 315 314 312 315 314 308 307 306 309 309 309 309 309 309 314 316 314 308 310 311 312 310 308 307 308 306 306 303 299 302 303 305 297 295 296 297 301 304 303 303 302 301 300 300 299 297 297 298 301 301 303 304 301 300 299 299 300 302 303 304 307 307 306 306 308 310 309 315 316 314 316 319 322
311 311 311 311 311 312 311 311 311 311 310 311 311 312 310 308 303 302 308 312 314 312 308 309 310 307 307 310 312 311 307 307 310 309 311 314 310 307 304 305 302 300 301 302 303 307 305 297 297 300 304 305 305 306 305 303 303 300 298 297 297 298 296 300 300 303 304 301 299 301 300 301 301 303 305 307 307 304 306 306 309 308 309 310 312 316 319 321
310 311 311 311 311 311 312 312 311 311 309 309 311 310 314 312 312 314 310 302 309 314 310 310 312 308 311 312 314 313 310 305 305 308 312 312 307 302 304 302 300 297 302 302 303 301 298 295 299 303 306 306 305 305 304 302 299 300 297 297 295 296 299 301 301 303 303 301 298 300 298 299 301 303 305 306 306 308 308 308 308 309 309 309 310 317 318 319
310 310 311 311 311 312 312 312 311 310 312 314 312 312 313 315 317 316 315 307 304 312 309 308 307 308 308 313 314 313 306 303 301 306 309 310 306 303 304 300 299 300 301 302 297 298 294 297 301 303 306 304 302 303 302 301 301 297 297 295 293 297 296 294 301 302 303 301 298 299 297 299 303 304 305 306 306 308 309 309 310 311 310 310 310 315 318 319
310 310 310 311 311 312 311 311 309 311 310 310 312 313 317 317 316 316 311 303 303 308 309 309 308 308 307 307 312 310 305 306 306 304 312 308 303 306 303 302 300 299 297 301 299 297 296 301 305 305 304 302 300 300 300 297 295 299 298 296 296 296 297 297 297 302 304 304 304 300 297 297 300 300 301 305 307 307 307 307 307 309 309 313 317 316 318 319
310 310 310 311 311 311 311 310 311 313 316 313 310 315 317 318 319 318 309 305 305 303 315 310 309 308 309 316 314 306 307 307 308 310 311 308 304 304 302 305 302 298 299 301 301 298 298 304 307 302 301 301 300 298 299 300 295 296 300 299 298 299 299 299 301 299 297 296 302 299 291 291 298 300 300 302 304 304 307 306 305 307 309 309 309 315 318 321
310 310 310 310 311 311 309 306 312 315 313 312 315 318 318 317 320 319 311 302 295 303 309 300 310 303 313 307 311 307 308 303 310 311 311 310 311 305 304 301 303 296 300 299 299 300 300 304 304 301 300 300 299 298 300 301 296 294 297 302 301 300 300 299 298 298 293 290 298 303 291 288 297 297 299 301 302 302 306 306 306 306 307 308 308 310 312 320
309 310 310 310 310 310 309 310 319 314 309 311 317 319 317 316 325 319 307 296 291 302 298 304 303 304 311 310 309 308 294 299 310 310 309 311 306 310 301 300 302 301 302 303 300 295 301 301 301 301 300 299 297 296 300 300 297 293 303 301 301 300 299 299 298 298 296 301 301 300 297 290 290 295 300 302 301 302 303 304 306 306 307 307 308 309 313 312
309 309 309 309 310 309 312 314 311 308 311 315 318 317 317 321 321 320 304 285 286 306 299 301 304 313 309 310 310 303 303 307 301 306 310 311 309 306 303 300 299 299 302 300 290 300 303 300 299 299 299 297 296 299 302 302 297 297 302 302 300 300 301 299 297 296 297 296 291 295 298 291 290 296 301 301 298 300 302 304 304 305 306 307 308 308 309 313
309 308 308 309 310 310 311 311 312 307 311 314 316 316 317 322 316 307 296 284 300 301 313 300 312 309 307 309 305 305 304 307 299 306 310 311 310 306 299 301 302 301 302 302 294 300 301 301 301 301 298 296 299 301 302 302 298 302 303 303 302 301 301 300 297 296 296 292 288 293 297 289 290 296 297 299 298 298 301 303 304 305 307 307 308 310 311 311
308 308 308 308 309 312 312 314 310 311 311 312 315 317 319 315 307 295 289 282 303 294 303 304 302 301 305 302 302 305 302 304 305 307 307 305 306 307 305 307 302 301 299 301 299 299 303 306 306 301 298 300 301 302 303 302 302 304 302 300 300 299 298 299 298 297 294 287 289 295 296 293 286 294 296 295 296 301 302 303 305 307 307 308 310 309 310 309
308 307 307 307 309 314 316 310 314 315 313 316 320 317 314 309 299 291 282 292 301 300 304 301 300 305 301 299 297 303 303 304 303 304 301 305 303 304 303 301 304 299 298 299 298 299 301 301 300 301 303 302 302 299 302 303 303 301 298 297 296 295 298 296 295 296 287 285 292 296 296 296 285 291 297 300 303 303 303 301 303 305 306 307 309 309 309 310
307 306 306 308 312 315 309 312 316 321 322 321 318 311 306 293 298 287 287 307 291 296 297 298 301 301 300 301 299 300 298 301 303 301 299 299 299 297 298 294 298 290 290 293 293 299 297 298 301 301 304 300 298 297 298 300 300 298 297 295 290 287 288 285 290 285 285 285 293 296 296 292 290 295 297 300 301 303 304 304 305 305 306 307 308 309 310 310
306 306 307 308 310 312 314 315 318 324 323 320 314 308 299 290 283 293 294 298 291 299 297 302 300 300 300 299 297 300 302 297 302 301 301 301 298 299 300 298 300 296 289 296 293 293 294 299 300 300 300 302 299 293 293 292 296 296 293 293 288 284 283 281 284 287 288 292 296 295 297 289 295 297 300 300 303 304 305 306 306 306 307 308 307 309 310 313
305 307 309 314 312 315 316 324 324 324 322 319 310 303 297 287 286 299 296 299 297 301 301 299 301 301 300 296 298 300 296 300 300 299 300 298 297 296 298 300 301 298 297 296 291 292 287 289 294 298 295 302 299 297 296 296 297 296 299 295 291 289 285 281 284 281 283 286 292 296 291 287 288 290 302 303 304 304 305 305 307 308 309 310 308 310 311 313
305 310 316 320 319 319 320 319 322 324 321 313 305 297 288 287 293 292 294 296 299 302 299 302 298 298 297 298 300 300 300 296 300 299 298 296 295 296 296 297 300 299 298 291 296 292 291 291 297 302 300 301 298 301 301 298 296 298 299 298 293 289 295 286 288 287 287 286 287 290 288 293 294 300 303 304 304 303 303 305 306 306 307 308 309 310 311 313
309 321 323 320 321 326 324 320 323 324 316 306 298 291 288 293 291 296 294 300 300 297 299 300 299 295 295 295 299 298 302 296 298 298 297 297 298 296 299 299 298 299 296 290 295 289 292 289 298 300 302 300 300 301 300 300 287 295 296 292 294 300 297 290 289 293 289 287 284 291 292 295 300 299 302 302 302 301 302 303 303 304 307 309 309 310 311 313
308 314 317 321 317 320 322 321 320 321 316 305 296 289 296 297 300 298 300 298 299 300 298 291 293 292 292 292 294 296 297 298 297 296 293 298 295 298 297 299 301 299 299 297 294 298 290 290 297 297 296 301 302 301 301 301 300 296 291 294 299 301 300 292 284 287 286 283 284 290 286 289 290 286 299 299 299 300 300 301 304 306 308 307 308 310 311 312
309 311 312 310 313 318 321 322 321 318 310 302 292 295 300 296 302 300 302 301 299 300 295 293 297 297 292 293 293 295 298 293 295 296 293 296 292 300 298 297 301 300 300 302 294 296 297 288 294 298 298 300 302 300 298 301 301 296 294 301 292 287 286 292 288 280 280 280 283 286 289 289 290 290 295 296 297 299 300 301 302 303 305 307 308 309 311 313
310 308 302 308 313 320 321 322 320 312 305 296 292 292 298 298 301 301 302 302 301 298 294 295 293 297 296 293 295 297 297 292 295 293 291 294 291 298 298 299 298 301 301 301 296 297 298 288 291 298 296 299 300 298 289 294 300 300 300 296 299 294 291 287 288 289 287 282 282 282 287 285 293 294 297 297 298 300 300 300 301 303 305 307 308 309 310 312
310 305 302 314 315 320 320 322 314 307 300 292 295 295 300 298 300 302 302 301 298 297 295 294 297 294 296 295 296 294 297 296 295 294 294 296 293 298 298 300 298 300 301 301 297 299 292 299 286 294 299 298 291 296 293 294 292 295 294 293 295 295 298 294 295 289 287 283 283 283 282 289 295 299 299 299 301 302 302 301 302 304 306 308 309 310 310 311
311 306 305 317 316 319 321 313 303 298 296 299 299 298 299 298 300 301 303 303 300 302 297 296 297 294 295 296 296 298 295 296 295 293 295 295 295 291 299 300 301 298 301 299 297 298 291 292 287 291 292 291 293 298 297 297 297 296 295 293 297 293 291 286 284 293 292 287 283 283 281 290 298 303 302 301 302 301 303 301 303 305 307 308 309 310 310 310
302 297 301 317 320 319 313 300 299 301 299 296 295 298 297 304 299 300 302 303 301 298 301 298 298 297 297 296 297 297 295 294 296 294 296 292 297 295 299 302 301 301 298 294 295 301 300 297 293 288 291 292 295 298 300 300 299 298 297 294 296 295 294 289 282 286 291 290 291 289 285 287 298 303 301 302 302 302 304 303 303 305 307 307 308 309 310 310
303 298 315 318 322 317 305 297 300 297 297 299 302 301 302 300 299 301 299 301 298 299 297 297 297 296 298 297 297 296 297 294 295 293 295 296 295 298 300 301 301 299 298 296 296 299 300 290 288 290 294 295 297 298 298 298 298 295 296 296 295 292 293 291 290 291 286 288 286 286 284 288 299 303 303 303 304 304 305 304 305 306 306 307 307 308 308 308
305 306 307 315 319 314 303 292 292 294 297 300 300 299 302 300 300 298 298 299 298 297 297 296 298 299 296 299 298 295 297 289 296 295 294 297 295 301 300 300 299 296 295 297 294 300 290 293 290 285 285 288 291 294 294 297 296 294 293 296 296 296 295 295 295 296 287 288 289 286 281 287 298 303 302 302 302 301 302 304 306 304 306 306 306 306 307 308
304 307 305 308 312 310 298 300 296 294 296 297 297 296 297 298 300 300 299 298 300 299 298 297 298 299 298 299 297 298 298 295 294 296 296 296 296 300 300 299 299 297 302 302 304 302 293 293 291 284 281 279 280 281 283 286 290 293 295 294 295 295 295 292 287 289 285 289 290 286 286 294 298 299 299 300 300 301 302 303 305 306 305 305 305 306 307 307
302 292 301 301 306 305 303 304 300 297 295 297 293 296 299 297 300 301 300 298 300 300 300 299 300 300 298 297 295 295 294 298 294 294 295 294 296 298 299 299 298 301 303 304 302 300 293 295 293 290 287 285 288 290 294 294 293 289 292 293 294 295 295 295 292 288 285 288 287 290 291 292 294 296 296 298 300 299 301 303 303 305 305 307 306 306 307 307
304 295 296 294 303 301 300 300 297 298 294 299 291 296 295 297 299 298 301 296 299 298 298 298 297 296 296 295 294 294 296 295 296 295 294 294 296 297 299 299 299 302 303 299 301 296 293 288 292 292 291 291 292 292 293 293 290 291 291 291 293 294 295 293 288 287 293 288 284 291 294 291 292 295 296 298 299 300 301 302 303 304 305 305 305 306 307 306
294 300 302 302 295 293 294 294 299 298 299 299 295 298 296 296 297 293 297 298 299 300 295 297 297 297 296 295 296 291 293 293 295 291 296 295 294 297 295 298 297 303 300 297 299 295 292 287 291 291 290 292 292 292 293 293 292 292 292 291 291 293 293 290 290 292 293 287 284 291 293 291 292 294 297 298 299 300 300 301 307 306 305 305 305 305 305 305
301 301 301 303 297 299 298 299 300 298 297 298 296 297 295 295 295 297 296 297 298 297 298 289 294 295 296 297 295 292 294 289 289 296 295 295 295 294 293 294 298 299 298 296 297 299 294 289 292 292 290 291 292 292 293 292 292 292 291 292 292 293 292 293 293 293 292 291 292 292 293 292 294 295 297 299 301 301 301 303 305 302 303 303 304 305 304 304
295 297 295 300 302 299 299 298 298 297 294 297 291 295 296 296 295 297 297 296 291 295 299 295 295 296 296 296 295 293 296 297 295 291 298 296 296 296 295 296 295 298 298 295 295 298 293 288 292 292 289 289 291 292 292 291 291 289 290 291 291 292 291 293 293 293 294 292 293 293 291 290 296 299 298 300 302 301 301 300 300 302 302 303 303 304 303 303
299 304 302 297 295 296 296 297 296 295 293 295 292 295 295 295 295 296 296 298 294 294 296 295 296 296 298 296 296 295 296 297 297 296 298 297 292 297 293 294 297 293 295 295 296 297 294 289 293 291 285 285 290 290 290 291 291 290 289 291 291 291 289 291 289 293 291 290 292 291 288 288 294 298 299 299 300 299 298 299 300 301 301 301 301 302 302 302
300 303 305 301 294 296 293 297 297 294 290 294 295 295 293 294 296 296 291 296 297 297 296 295 296 295 296 295 294 295 297 297 297 297 298 298 299 298 298 297 297 295 294 294 296 292 293 289 287 287 284 284 289 291 290 290 288 285 285 290 291 292 292 293 293 295 295 294 289 287 287 293 296 297 296 297 298 298 298 299 300 300 301 300 300 301 302 303
Wind_Speed
11 11 11 10 10 10 10 10 10 11 10 10 10 10 10 10 10 11 11 11 11 11 11 12 12 13 13 13 14 16 15 13 15 13 13 16 3 7 10 5 7 6 5 7 10 11 11 10 12 10 10 8 8 9 9 11 9 7 8 8 10 10 12 10 12 9 10 8 12 12 8 3 6 4 4 4 6 10 13 10 5 17 17 18 19 16 15 12
12 11 11 11 10 10 10 11 11 11 11 11 10 10 11 10 10 10 11 11 11 11 11 12 12 12 13 13 14 15 14 13 14 16 19 4 10 8 7 5 6 7 5 10 12 11 11 11 11 10 10 9 7 9 8 8 9 9 8 9 10 10 11 12 14 10 7 4 9 5 4 6 5 4 4 7 4 8 11 9 10 15 17 18 16 17 16 15
12 11 11 11 11 11 11 11 11 11 11 11 12 11 11 11 11 11 10 11 12 12 12 12 12 13 13 13 14 13 14 14 14 17 18 14 12 10 10 8 7 7 10 12 12 11 11 9 9 10 9 10 8 10 10 9 9 10 10 10 11 12 15 17 16 9 8 10 8 8 5 2 5 5 3 9 9 10 10 8 10 15 17 18 18 15 14 12
12 12 12 12 12 12 11 11 11 11 11 11 11 11 11 11 11 11 11 11 12 11 11 12 12 12 14 14 12 13 12 12 11 1 9 12 11 9 8 8 9 9 12 14 12 11 9 11 10 10 9 10 9 12 10 8 7 7 10 11 11 13 13 8 7 10 10 8 10 8 6 6 11 1 4 7 9 11 8 10 13 19 18 20 18 17 14 11
13 13 12 12 12 12 12 12 12 12 12 11 11 11 11 11 11 11 11 11 11 11 12 12 11 12 12 13 13 11 11 8 7 8 7 9 10 10 8 8 7 10 13 12 12 12 12 11 9 9 9 8 11 10 10 11 10 9 11 13 15 15 15 9 9 2 3 6 8 9 9 9 8 5 10 9 9 6 7 8 14 10 17 21 20 17 14 12
13 12 12 12 12 12 12 12 12 12 12 11 11 12 12 11 11 11 11 10 11 12 11 11 11 12 13 13 12 10 6 2 2 6 8 5 8 8 9 6 7 9 11 13 12 11 9 9 10 8 8 10 11 11 10 13 9 10 11 12 11 13 14 9 7 8 7 6 7 9 11 7 5 10 10 5 7 4 17 25 24 11 20 17 17 17 15 11
13 13 12 13 13 12 13 13 12 12 11 11 11 11 11 11 11 11 11 11 11 11 11 11 11 12 12 14 12 8 8 10 4 5 9 6 6 7 5 6 3 7 11 12 12 10 9 10 10 9 9 10 13 13 13 10 13 13 11 10 13 14 16 11 8 7 8 4 10 10 11 8 8 10 7 6 8 1 13 17 17 20 18 16 13 12 13 13
14 13 13 13 12 12 12 12 12 12 12 12 11 11 11 11 10 11 11 11 11 11 11 11 10 10 11 11 7 7 9 8 7 8 8 8 8 7 5 8 9 9 10 12 11 11 8 11 11 9 10 10 8 13 11 14 15 14 11 12 15 12 7 8 8 7 7 9 8 10 9 8 10 12 1 9 6 7 17 17 17 15 16 12 12 10 9 11
14 13 13 13 12 12 12 12 12 12 11 11 11 11 11 11 11 11 11 11 11 11 11 10 9 10 8 8 7 9 6 4 8 11 11 11 10 10 10 8 11 11 11 12 13 10 9 9 12 10 9 13 12 12 10 9 7 8 12 12 12 14 11 9 10 11 13 7 7 11 12 11 12 10 8 9 6 7 16 19 16 14 12 13 11 9 8 9
14 14 14 13 13 13 12 12 12 12 12 11 12 12 12 12 12 11 11 11 11 11 10 9 9 9 10 6 8 8 3 5 10 10 11 10 11 10 12 10 12 12 12 12 10 11 11 9 11 10 13 15 13 9 10 7 8 3 8 13 15 13 9 9 11 12 8 8 11 11 10 11 10 2 8 6 6 5 8 14 13 9 11 11 10 8 9 7
14 14 14 13 13 12 13 12 12 12 12 12 12 12 13 12 12 12 12 12 11 11 9 8 8 8 8 7 7 7 3 4 7 8 10 10 11 11 11 11 12 11 12 9 10 9 10 10 9 6 6 8 7 11 9 10 11 12 8 11 9 10 11 13 12 8 6 9 13 9 12 13 9 7 10 9 8 6 6 19 7 10 7 10 10 7 7 7
15 14 14 13 13 13 13 13 12 12 12 12 13 13 13 13 12 12 12 12 12 10 9 7 7 5 8 9 9 8 1 2 3 8 8 10 9 11 11 12 11 11 10 9 8 9 9 8 7 8 5 6 9 6 11 13 10 10 7 9 12 14 13 14 15 11 10 11 10 9 12 11 7 11 9 8 7 9 18 18 15 12 7 8 9 9 8 4
15 15 13 13 13 13 13 13 12 12 12 12 12 13 13 13 12 12 12 12 9 9 8 6 6 6 7 8 11 11 2 3 3 7 7 8 9 9 9 9 10 11 11 8 8 7 6 8 7 10 10 9 8 6 10 4 10 7 10 11 12 13 14 16 13 13 12 12 11 9 9 9 11 13 9 8 7 8 11 13 17 12 9 6 7 7 10 13
15 15 14 13 13 13 12 12 12 12 12 12 12 12 12 12 12 12 12 13 12 11 10 7 6 6 6 7 3 4 2 2 5 7 8 8 10 10 6 6 7 8 7 10 11 3 7 5 9 10 10 13 10 8 7 8 5 9 11 9 9 10 11 14 12 13 13 7 11 8 9 8 12 13 13 9 10 8 8 12 13 16 13 10 9 7 5 5
16 15 14 13 13 13 12 12 12 12 12 13 13 13 11 12 12 12 12 12 11 11 10 7 7 5 6 6 6 7 5 4 7 7 9 10 11 7 8 7 9 8 8 7 7 2 5 7 8 9 9 10 10 10 9 9 8 8 9 10 10 11 12 13 10 10 11 11 8 7 9 11 8 11 15 10 5 6 8 12 13 10 13 10 8 7 5 7
16 15 14 14 13 13 12 12 12 12 12 12 12 10 11 13 12 12 11 12 12 8 6 6 8 9 9 11 4 9 6 9 9 8 9 12 10 8 8 9 7 9 6 8 6 2 4 8 9 8 10 9 10 9 9 8 9 9 9 7 11 11 5 12 12 12 11 10 13 11 9 11 14 10 10 9 7 8 7 11 13 14 17 11 9 7 7 7
16 15 15 14 13 12 12 11 12 12 12 12 11 10 11 11 10 8 9 9 7 8 6 5 3 10 4 5 4 9 8 10 7 9 9 11 10 9 8 9 8 8 7 7 7 4 7 8 6 9 9 10 9 8 8 8 8 8 8 8 9 12 9 7 13 10 9 10 9 12 12 11 8 10 7 6 6 9 9 8 18 13 13 12 7 11 9 7
17 16 15 14 13 12 12 12 11 11 11 11 10 11 9 8 8 7 5 6 6 7 9 9 9 7 13 14 11 11 8 7 8 8 9 7 10 5 8 8 6 8 8 8 8 9 7 8 7 7 5 7 7 8 8 8 8 4 6 7 8 12 8 7 7 10 9 8 9 11 12 14 8 9 9 5 6 10 9 8 17 17 15 9 10 11 12 12
17 16 15 14 13 13 11 11 10 10 10 10 14 12 12 13 8 6 5 5 5 3 5 7 7 8 8 11 14 10 10 9 7 7 10 8 7 6 8 8 8 8 8 7 8 11 7 7 7 7 8 8 9 11 8 7 10 11 11 7 6 5 6 7 4 10 7 11 10 10 9 10 9 10 9 13 10 7 7 5 7 18 15 17 15 13 13 13
18 16 15 14 13 12 11 10 10 9 8 9 7 6 4 3 4 3 7 9 11 12 8 1 16 13 9 8 8 7 7 9 9 8 9 8 6 8 11 8 8 8 9 7 9 9 6 8 7 8 8 4 6 4 7 7 11 10 13 12 10 9 7 8 10 11 6 7 7 13 16 14 9 8 14 7 7 7 6 4 4 6 16 17 17 14 15 14
18 16 14 13 12 11 11 9 8 9 5 7 8 6 6 9 6 3 3 10 16 16 18 15 14 17 8 1 8 8 7 9 9 8 11 8 10 7 9 8 9 9 8 12 10 6 6 8 9 11 2 4 4 8 7 8 7 10 10 9 7 6 6 5 8 8 5 2 5 9 11 7 7 9 10 3 4 7 5 9 6 6 7 8 11 19 15 14
18 16 14 13 12 11 10 9 6 5 4 6 6 7 9 7 5 5 7 9 11 18 18 16 12 14 8 11 5 7 8 7 11 10 10 11 10 11 10 10 9 10 9 7 8 3 7 8 10 12 4 2 3 5 7 7 9 9 9 8 8 9 7 6 13 1 8 2 4 7 9 11 12 11 4 5 7 3 4 7 9 6 7 7 6 19 15 15
19 17 15 13 11 10 9 8 6 2 5 5 6 11 11 8 7 7 9 9 14 13 16 16 13 11 10 9 6 4 10 12 10 13 12 11 10 13 8 9 9 11 11 10 8 6 8 10 15 11 6 2 5 6 6 7 7 6 7 7 8 9 9 5 5 3 4 5 4 6 10 8 12 5 6 9 12 6 5 9 10 7 6 8 8 14 15 15
19 17 15 13 11 9 8 3 4 6 7 12 11 13 12 6 6 8 8 6 8 10 13 14 13 11 13 11 9 12 12 10 10 14 13 12 11 10 11 12 11 8 11 14 11 9 12 3 12 9 4 1 4 4 5 5 7 7 9 10 10 10 8 10 4 4 7 9 4 10 9 8 7 3 7 9 4 5 8 11 10 7 6 5 4 9 18 18
19 18 16 13 10 9 5 4 5 8 8 9 13 13 10 3 2 6 7 7 8 11 10 12 9 11 11 7 6 12 11 11 13 11 14 12 12 11 11 8 8 10 10 13 10 11 13 9 4 6 4 5 3 6 7 7 7 8 10 12 12 14 11 9 9 4 3 7 9 8 7 8 8 10 10 11 8 9 10 9 7 6 7 8 8 4 14 13
18 17 15 12 9 4 3 4 7 9 11 10 10 6 3 6 7 6 6 4 6 7 11 12 9 10 9 15 6 9 7 12 9 7 14 11 11 13 6 9 6 10 11 8 13 6 3 7 6 4 2 3 7 7 8 8 8 7 5 5 11 12 11 8 9 4 5 5 3 9 7 4 5 9 10 14 12 11 7 6 7 7 6 6 5 4 6 13
17 16 15 12 8 1 4 3 10 14 9 4 4 2 5 5 5 6 5 4 6 5 9 6 11 1 6 11 10 6 10 8 7 10 11 10 13 8 11 8 7 9 8 6 4 6 9 7 3 4 5 6 8 9 8 10 8 8 5 9 6 8 9 10 8 8 8 8 2 6 7 7 7 9 7 5 3 8 11 10 8 10 12 9 8 7 6 10
17 16 15 12 9 6 5 9 12 10 10 8 7 7 6 6 5 3 4 2 3 9 10 9 4 4 10 11 12 12 9 3 11 13 6 10 11 5 11 14 10 7 8 6 8 4 7 10 6 7 6 7 9 9 8 11 9 4 4 6 10 10 9 11 10 8 8 6 9 7 9 8 8 7 6 8 8 8 7 8 9 8 5 7 6 5 3 3
17 16 15 12 9 10 9 6 7 13 11 12 7 5 5 6 5 4 1 5 3 5 5 10 2 7 7 11 13 14 15 9 9 9 11 8 11 10 9 13 12 12 13 11 9 3 1 11 2 7 8 8 10 12 12 11 9 7 9 5 7 10 11 8 7 8 6 7 8 8 6 8 7 4 7 9 8 9 7 10 9 6 2 2 3 5 7 5
17 15 14 13 7 6 6 6 9 15 12 11 8 7 5 4 4 3 3 7 5 7 9 4 9 11 10 10 11 14 15 4 8 9 10 9 12 13 13 13 12 9 7 5 10 8 9 5 6 7 7 9 11 10 4 4 8 2 3 9 9 10 10 7 5 6 5 6 9 11 13 9 8 6 6 5 9 8 4 5 4 5 3 3 8 3 2 3
18 15 12 7 4 3 3 7 12 16 14 6 6 7 5 5 4 2 5 4 4 5 7 7 10 11 14 14 10 13 13 11 8 4 9 7 10 11 9 10 8 9 7 7 8 11 10 8 8 8 10 10 9 12 3 6 8 7 4 6 8 8 7 5 6 7 6 6 9 11 12 10 9 4 3 9 9 4 7 10 11 7 7 5 4 1 4 4
20 16 9 6 9 9 5 6 11 7 8 8 6 6 4 5 7 6 4 8 6 4 9 9 11 11 15 14 13 11 12 14 11 12 10 8 9 9 9 9 6 6 8 8 8 5 9 9 11 10 8 8 9 8 8 7 8 8 7 8 8 5 1 4 5 6 6 6 3 5 10 6 9 6 8 6 7 6 5 8 7 6 8 6 5 4 3 2
23 14 15 12 10 8 11 13 10 6 5 5 6 6 6 4 8 9 10 8 2 3 7 9 7 12 10 14 13 11 11 12 10 11 12 12 10 10 11 12 8 8 5 2 7 5 6 10 12 8 8 9 7 8 6 8 7 7 7 7 6 5 5 5 6 4 7 6 8 5 2 7 3 5 9 5 8 8 5 7 5 5 9 5 4 5 5 3
25 20 8 6 9 11 9 9 7 6 5 4 6 6 7 6 9 9 12 5 8 6 10 7 9 10 10 11 12 11 10 11 10 10 11 9 10 7 8 12 13 10 5 4 6 6 5 7 10 9 7 12 7 8 10 9 4 7 7 6 5 6 5 5 5 5 6 5 5 3 2 4 3 2 4 7 8 6 5 4 7 7 6 4 2 5 8 7
30 20 8 6 8 11 14 12 9 7 6 6 6 7 7 8 8 10 9 8 9 13 9 6 12 9 11 13 10 11 9 7 12 10 11 11 9 9 10 8 9 7 7 6 5 3 10 8 2 7 5 4 5 5 6 7 10 6 8 3 5 4 5 8 3 6 7 4 5 5 5 4 3 2 1 6 5 5 6 9 8 7 8 7 6 6 7 7
18 3 7 5 7 9 11 10 10 6 5 6 6 7 9 8 7 7 7 7 7 6 8 9 10 9 8 8 8 10 14 10 9 10 8 10 10 11 9 7 9 10 9 7 1 5 2 6 4 10 2 4 8 8 5 1 6 4 7 5 4 2 7 3 4 8 6 3 7 5 3 7 7 7 7 7 7 8 7 10 9 8 8 7 7 7 7 7
7 8 6 8 12 11 11 11 8 7 5 7 7 8 9 10 13 13 9 11 8 6 8 9 6 8 7 7 7 9 8 10 8 8 9 9 11 14 11 8 6 4 8 6 4 3 5 5 1 3 9 11 12 3 7 6 5 6 6 4 5 7 8 5 4 1 3 5 3 3 4 8 8 3 8 8 8 10 9 10 10 10 8 7 7 7 8 8
9 8 10 13 12 10 10 10 8 6 6 8 8 11 10 13 10 14 12 6 4 6 9 6 4 6 6 7 8 7 7 7 8 10 10 9 5 1 3 4 9 7 5 2 4 2 1 6 7 9 7 9 5 1 9 11 10 9 8 8 6 1 3 3 2 4 5 5 4 5 9 8 5 5 9 10 10 10 10 9 10 9 9 8 8 9 9 9
7 6 8 11 14 8 8 6 7 7 8 9 8 9 10 14 15 15 12 14 6 10 10 8 8 5 7 6 8 10 11 9 8 9 8 7 9 4 6 1 6 4 3 8 5 6 5 5 3 7 13 6 6 7 4 5 8 15 8 9 6 5 5 5 3 5 3 6 4 4 7 4 2 2 5 8 9 9 10 8 9 9 10 9 8 7 8 8
6 5 8 9 8 9 7 6 6 8 8 10 10 11 8 12 13 15 16 9 7 7 9 11 9 9 9 10 10 7 8 12 8 9 10 2 3 6 8 2 7 6 2 2 7 3 3 1 5 5 11 7 8 2 6 6 6 4 6 7 5 4 4 7 4 6 6 4 4 5 5 1 3 2 5 5 5 2 6 5 6 7 10 10 9 8 7 8
7 7 4 5 8 7 8 6 8 10 10 10 13 13 13 12 10 9 12 3 5 9 12 9 8 8 8 7 10 10 8 8 8 8 6 6 7 3 8 8 8 8 8 4 7 4 3 3 5 6 7 8 7 5 8 7 5 5 5 5 6 3 3 4 6 6 7 5 4 5 6 2 3 7 1 8 4 7 6 5 5 12 10 10 8 8 8 8
6 6 4 5 6 9 7 8 8 8 8 11 10 9 11 1 10 12 8 4 7 8 8 11 10 8 5 8 8 7 8 9 8 8 6 7 5 8 7 3 4 5 5 1 2 6 3 3 6 4 7 8 10 12 11 9 6 9 8 7 7 7 5 5 6 5 6 4 5 7 5 1 4 6 6 7 6 2 4 3 8 11 11 10 9 9 8 8
6 8 8 9 8 9 8 9 9 8 10 10 12 15 15 11 9 9 12 11 9 6 9 8 7 8 9 8 4 9 7 7 8 9 7 8 9 13 5 4 5 5 3 4 9 7 4 1 4 9 10 11 12 14 15 11 7 8 9 9 9 9 8 8 7 6 6 7 7 5 6 3 3 3 6 4 4 7 7 8 11 11 10 9 10 10 10 9
8 7 3 7 9 9 8 7 7 8 9 13 14 14 11 11 9 10 12 12 8 6 8 7 5 7 10 5 7 9 3 4 5 9 8 10 6 7 11 5 1 1 4 3 3 5 3 2 7 6 7 8 9 9 10 9 9 6 4 4 7 9 10 10 10 4 5 7 8 7 8 0 1 2 0 4 3 3 4 7 11 11 9 9 10 9 8 8
9 8 8 6 8 8 10 9 9 7 10 11 11 13 13 10 6 11 10 10 9 11 4 5 8 5 6 7 7 7 6 9 6 8 10 9 6 4 10 1 6 4 11 8 8 3 2 4 4 4 5 6 4 3 2 3 5 5 5 6 7 7 9 9 6 5 7 6 7 6 6 3 6 6 1 3 3 4 4 3 10 9 9 9 9 8 8 8
4 3 4 7 8 7 9 9 10 9 7 8 6 9 10 10 10 9 5 12 7 9 6 6 6 5 7 6 7 6 7 7 6 5 6 6 3 6 7 4 4 9 8 9 4 2 3 5 6 6 7 8 9 10 9 9 7 8 9 10 10 9 11 10 6 4 6 6 6 8 8 1 4 5 2 3 3 3 2 2 8 9 8 7 7 7 7 7
6 6 3 3 4 6 7 7 10 9 8 8 6 6 10 11 9 8 5 7 7 8 8 8 9 7 5 8 8 8 7 10 9 9 10 9 7 2 10 1 6 10 9 3 1 2 3 4 8 10 13 14 15 16 15 14 14 13 13 13 13 12 10 10 5 8 7 6 9 5 6 7 10 9 6 6 1 4 5 6 5 6 5 6 7 7 8 7
4 4 4 7 4 3 5 1 8 8 8 8 7 6 7 8 8 8 4 4 11 5 3 7 8 9 10 7 5 5 7 9 9 7 9 6 7 10 5 7 4 9 4 4 4 5 5 5 8 10 13 14 15 15 14 14 13 14 14 14 14 13 12 12 9 11 12 8 11 8 9 12 12 11 10 11 8 4 5 7 8 3 9 9 8 7 7 8
7 6 5 12 5 6 5 7 8 8 9 4 5 6 8 9 9 8 7 5 5 7 6 3 8 8 10 11 8 7 5 6 4 7 6 7 8 4 7 4 5 7 4 3 6 4 4 5 8 9 13 14 14 14 13 14 13 14 15 16 15 12 14 13 12 14 14 13 14 14 13 10 13 13 10 10 10 11 6 4 2 6 7 6 9 9 8 8
9 8 8 11 8 8 4 6 7 5 7 2 1 6 4 4 6 7 4 4 2 8 7 7 9 9 10 11 7 2 8 6 7 4 8 8 4 3 5 4 4 5 10 5 2 4 4 2 1 6 8 10 11 13 13 14 14 16 17 16 15 14 16 15 14 13 11 12 12 12 10 8 8 7 9 9 9 10 10 7 7 6 7 7 7 8 10 10
8 7 6 8 8 7 6 7 4 5 5 2 2 4 4 7 6 1 4 1 2 4 7 8 10 12 11 10 4 7 8 7 7 7 7 5 4 3 2 4 4 7 6 4 6 4 5 5 4 7 6 8 10 11 12 12 14 17 16 14 15 14 10 10 8 8 8 9 11 11 10 6 9 11 9 8 10 11 11 11 8 6 11 11 10 10 11 10
9 9 9 7 5 6 8 7 3 6 2 5 5 4 3 6 5 6 5 4 6 4 6 12 9 8 9 8 9 8 7 6 7 6 8 7 6 7 5 7 8 7 5 6 5 6 4 4 5 5 8 9 10 11 13 13 13 12 9 9 12 14 11 13 16 13 9 9 9 7 7 4 9 12 11 6 10 12 12 10 11 12 13 9 10 10 11 11
Wind_Direction
324 324 322 321 323 319 318 315 318 316 315 314 311 310 308 312 308 308 310 308 306 305 308 309 315 314 310 313 317 321 318 305 302 289 260 245 224 106 90 99 139 154 184 229 232 240 215 221 224 229 235 233 224 238 249 234 242 244 230 239 252 260 253 252 257 258 43 292 20 71 44 12 280 300 327 71 244 260 276 290 98 78 90 98 113 130 131 138
327 327 325 321 320 319 317 318 318 318 317 316 315 312 313 310 312 306 306 309 307 304 305 309 309 309 312 314 319 321 317 298 290 279 258 255 142 135 126 152 182 176 185 228 230 219 224 209 226 215 233 230 219 238 219 236 209 230 240 240 250 243 252 258 248 266 44 298 1 17 276 71 297 336 297 275 258 225 246 245 118 104 98 107 119 124 136 144
322 321 321 321 319 319 319 315 315 315 317 318 316 317 313 307 308 310 305 304 306 305 306 306 310 309 315 319 318 315 304 300 281 262 257 171 156 148 149 170 195 194 199 216 223 232 224 221 212 224 220 248 213 237 206 232 190 220 257 242 237 249 273 276 282 316 327 326 306 331 357 352 312 269 1 257 275 275 230 229 146 128 123 117 126 125 133 146
323 323 323 323 321 318 318 317 316 315 316 316 315 314 313 310 306 307 306 304 299 303 306 306 307 312 312 313 319 314 297 292 272 254 84 120 135 148 161 160 189 207 220 236 239 239 230 250 240 217 233 231 238 241 215 220 222 190 227 245 254 249 250 273 339 7 335 307 309 309 319 314 275 216 325 305 273 264 262 218 218 143 139 136 128 137 144 148
325 322 319 318 317 316 316 318 317 318 316 318 318 315 313 312 310 306 305 299 302 308 307 304 303 307 312 309 312 297 301 279 83 89 130 131 148 158 159 177 184 213 218 234 249 259 247 238 254 239 234 238 246 228 237 222 214 258 225 234 251 270 285 291 291 260 267 6 333 306 299 285 311 320 252 242 260 267 282 275 233 200 152 133 136 138 140 147
321 319 318 317 316 317 315 314 315 313 315 316 315 314 315 314 312 310 309 310 304 303 301 303 307 312 310 316 303 288 285 44 58 109 142 158 153 152 162 188 203 229 219 232 249 250 239 242 242 234 222 245 248 243 207 237 216 232 252 265 279 286 286 312 295 12 33 287 269 266 256 278 302 271 283 271 264 278 57 57 43 52 115 121 127 134 127 121
321 320 320 319 316 314 313 312 313 313 312 313 312 312 313 311 314 312 311 307 301 301 301 305 310 312 317 302 271 263 259 272 306 128 123 159 148 143 157 198 183 220 232 241 240 234 211 237 223 228 228 237 244 250 246 210 229 247 250 241 236 237 247 252 298 256 241 233 262 273 278 273 286 273 248 222 224 149 77 64 62 82 104 110 119 125 132 136
320 320 320 315 313 311 310 310 309 312 312 313 310 310 308 307 306 307 307 306 307 306 303 304 308 313 324 309 285 225 229 261 116 121 140 145 166 155 161 202 204 207 227 235 243 232 205 231 221 223 241 235 224 232 240 241 234 229 230 260 276 290 317 314 279 284 280 269 263 259 265 265 248 256 23 243 253 157 98 103 101 98 105 113 114 107 106 112
321 318 319 316 312 310 309 309 309 308 308 307 306 304 306 305 306 307 307 305 304 302 299 303 309 311 307 283 293 300 272 119 105 129 151 162 158 171 182 184 199 205 219 234 238 235 226 217 238 232 234 222 239 259 257 241 240 247 254 262 259 249 242 234 245 249 247 248 241 244 237 245 252 254 272 253 186 152 128 114 116 115 113 117 116 114 118 134
321 319 317 315 312 310 311 312 309 307 307 305 304 304 303 304 301 300 300 301 300 299 301 304 305 307 292 273 277 269 100 129 118 142 153 153 155 163 196 196 180 211 227 230 227 237 224 221 230 215 252 278 297 293 269 226 252 28 281 239 250 263 262 249 254 250 224 224 245 238 238 242 238 169 239 221 127 174 193 138 128 127 129 123 126 132 134 132
320 318 316 315 313 312 312 308 306 304 304 305 302 302 300 299 298 298 297 297 295 294 298 300 304 300 288 270 279 277 46 253 138 134 159 153 161 175 199 216 186 216 234 224 245 226 238 264 294 273 296 266 252 248 239 254 247 247 247 276 272 270 261 266 258 249 245 233 236 222 246 243 209 192 246 173 154 181 141 94 110 97 124 129 130 135 93 92
321 319 316 314 313 313 311 309 307 305 303 304 304 302 302 298 297 296 293 291 291 293 296 297 301 284 275 273 252 272 353 119 192 154 159 171 175 188 195 215 207 223 227 228 220 237 273 273 328 266 254 53 252 287 237 232 256 257 271 257 250 250 251 235 246 230 223 248 218 220 254 238 194 228 236 138 145 211 126 131 136 136 155 132 148 128 107 127
323 319 317 314 312 312 309 308 306 304 304 301 300 299 297 298 296 294 290 287 278 278 280 280 276 260 285 281 243 229 248 116 167 151 176 190 193 207 213 230 211 227 245 256 208 234 238 264 275 268 259 267 279 275 15 302 229 264 252 256 263 255 240 229 216 231 227 238 195 202 240 219 208 235 164 145 163 202 173 150 143 135 163 159 138 142 146 162
325 321 318 314 310 310 307 305 305 303 302 302 302 301 297 298 298 293 287 279 284 287 287 275 274 270 274 259 306 148 178 272 139 192 187 193 212 202 226 234 243 245 269 283 304 185 225 222 268 273 294 274 263 344 274 233 254 249 246 232 251 256 245 209 188 209 224 185 161 195 251 235 176 231 146 135 218 192 200 176 162 156 156 155 148 145 147 165
328 322 316 315 312 309 306 305 303 302 302 300 299 299 301 299 294 289 282 278 264 261 261 271 243 261 222 254 229 108 36 268 183 195 180 191 214 191 207 199 222 232 236 264 263 285 270 267 258 250 244 241 263 265 248 240 220 231 243 228 231 245 256 158 175 176 224 136 178 202 254 267 250 195 129 147 204 203 236 124 165 128 125 142 136 136 157 105
329 323 318 315 314 306 305 304 302 300 298 300 298 304 298 288 286 287 278 267 280 305 251 246 226 228 296 280 142 121 176 207 200 190 178 206 203 198 182 190 200 220 215 210 277 283 233 242 236 244 257 238 236 248 258 238 215 220 239 247 238 228 213 134 193 177 219 165 188 221 241 225 244 125 131 152 201 209 228 139 142 144 110 123 148 143 147 122
331 325 323 316 312 310 304 302 300 299 299 297 304 288 283 286 282 289 268 260 253 229 228 256 257 187 258 78 144 190 191 221 178 184 183 228 203 169 172 186 194 204 200 231 220 240 222 231 225 250 246 268 232 232 253 247 234 210 211 246 244 260 156 201 147 209 203 233 170 202 241 256 78 90 125 148 230 227 218 183 142 135 144 145 164 159 156 143
332 329 323 317 311 310 305 297 298 300 301 301 294 292 293 295 297 277 238 241 236 229 232 245 269 287 244 258 238 213 197 195 166 189 181 208 258 171 192 195 187 211 192 219 201 233 190 231 223 253 231 224 240 246 247 246 239 231 215 212 239 251 233 208 164 168 230 159 252 187 231 255 173 173 160 202 237 246 214 217 135 146 149 146 168 178 164 161
334 330 323 320 314 305 303 299 297 301 300 302 282 275 271 263 263 238 255 175 201 176 223 197 192 205 360 183 222 196 201 144 198 179 185 211 200 238 200 223 192 205 205 226 175 225 185 241 232 248 240 218 222 233 243 297 338 344 321 275 263 259 234 260 192 125 210 161 219 242 217 229 201 184 177 186 170 240 249 209 168 143 151 158 176 182 169 171
336 331 327 319 314 305 300 301 295 294 309 300 273 227 227 221 181 196 209 221 232 235 291 136 193 220 246 159 191 104 104 128 200 194 189 207 192 219 215 218 225 222 235 233 171 217 201 237 231 228 229 288 331 295 36 308 347 325 305 279 226 234 230 212 118 149 206 283 216 200 233 227 223 204 190 222 166 175 267 276 189 192 162 173 181 172 167 161
338 334 327 324 315 313 301 298 296 288 288 278 284 272 269 343 329 61 184 220 222 243 255 261 208 231 260 193 126 148 184 178 233 179 221 159 226 208 203 215 224 216 229 240 232 140 239 252 249 249 12 28 328 350 341 333 315 320 311 300 308 234 251 239 166 121 154 221 285 300 297 256 231 244 243 237 165 138 208 269 273 202 225 210 192 163 168 153
342 338 333 326 322 311 307 297 294 297 265 273 264 258 272 354 357 342 302 288 236 223 235 249 246 237 226 275 138 205 182 198 199 202 202 179 198 224 156 215 206 229 211 224 254 129 227 241 255 249 135 253 296 14 337 333 321 291 285 303 296 285 261 111 85 173 124 177 275 270 244 257 226 211 216 261 270 186 201 252 263 232 211 234 229 147 155 160
343 341 334 328 321 312 307 303 298 343 282 228 237 247 261 325 339 348 315 281 276 262 232 224 233 242 251 220 232 227 231 208 200 189 187 193 201 224 202 200 218 235 221 209 230 224 240 232 238 237 97 26 302 278 302 311 291 283 272 261 264 273 276 159 166 180 205 199 236 240 283 311 288 281 292 250 226 198 199 239 246 239 220 233 229 147 149 159
344 342 336 328 321 318 303 311 273 241 229 234 252 268 290 328 340 333 324 277 289 257 225 216 226 224 230 210 191 220 229 208 227 183 170 186 222 196 242 239 246 230 248 201 205 254 264 110 90 86 64 73 320 315 271 262 261 242 257 265 262 256 239 280 92 89 14 345 349 291 287 277 283 215 237 256 218 171 206 234 236 228 225 233 258 140 159 159
340 343 337 330 322 316 324 292 252 223 218 224 248 262 268 330 321 352 320 287 239 252 233 222 214 216 214 220 169 219 202 270 252 184 164 189 210 218 217 227 250 245 250 276 212 218 248 350 96 103 136 226 226 263 231 244 255 259 227 239 265 284 313 318 116 179 211 243 217 234 250 249 241 231 231 239 193 199 229 224 225 225 208 212 209 177 158 152
338 337 340 330 315 309 326 271 237 242 225 234 256 221 260 328 24 345 304 282 279 247 155 223 156 203 214 177 182 225 233 236 236 188 157 190 229 235 194 235 222 247 237 253 238 230 192 148 251 265 290 270 255 252 256 210 255 259 297 280 241 264 282 277 266 262 255 251 197 193 256 268 247 260 230 219 214 198 219 218 227 227 218 219 214 189 142 142
336 333 334 329 310 285 252 257 342 317 268 273 167 37 306 318 44 326 273 235 263 174 183 116 174 206 275 155 201 187 215 215 181 139 168 173 235 189 268 249 188 277 287 308 33 211 256 248 127 287 266 253 260 251 229 249 240 260 29 270 275 253 254 267 271 266 264 266 291 189 226 259 258 255 301 5 218 178 200 209 222 222 191 203 201 207 193 170
334 333 331 325 307 230 291 323 316 298 292 15 304 350 332 37 0 269 266 285 256 155 200 149 257 124 222 168 202 209 228 107 179 157 180 156 234 192 236 262 281 256 206 227 252 56 290 133 176 248 246 261 257 249 262 222 229 241 172 287 280 276 261 250 241 237 249 283 273 227 236 245 245 268 244 203 215 206 193 225 204 234 228 193 193 200 177 160
333 333 329 323 305 261 265 272 301 276 279 313 341 319 2 10 299 298 278 270 99 206 36 179 114 200 224 178 201 224 233 141 237 134 186 198 200 253 217 227 259 285 292 181 244 177 282 277 268 237 260 245 238 247 238 249 232 212 268 342 292 276 268 272 268 266 264 256 255 264 238 265 263 263 256 185 199 222 216 198 188 224 172 161 143 59 36 13
329 330 326 323 286 233 236 226 242 251 274 287 327 332 315 263 264 235 224 259 160 213 177 102 194 183 213 188 206 215 238 198 242 163 186 200 184 226 263 310 283 266 246 210 254 260 235 128 329 306 234 236 249 242 104 257 238 248 268 273 261 249 252 254 275 280 264 248 251 253 266 255 269 250 244 220 176 211 161 178 120 176 156 137 77 4 222 253
322 323 318 311 249 259 237 230 232 235 243 272 352 321 291 244 256 248 240 269 208 238 149 150 199 183 192 213 204 200 230 220 200 122 186 183 214 210 242 231 258 287 288 276 231 250 246 168 205 227 262 279 292 295 298 255 283 288 261 250 268 253 255 242 233 246 258 258 258 250 245 231 255 226 338 43 91 130 212 154 185 166 162 96 76 86 55 34
318 310 278 247 259 324 270 262 358 332 13 5 333 279 249 256 222 229 228 320 277 164 212 178 217 195 197 208 234 186 202 222 204 185 224 183 213 195 202 256 173 242 238 228 237 237 273 239 189 213 194 256 254 262 263 243 230 240 241 266 266 262 256 273 246 238 247 258 254 305 301 245 220 264 111 161 149 187 98 147 150 155 117 115 110 80 67 45
317 303 289 249 247 244 255 266 288 336 339 321 288 260 245 247 253 228 237 237 203 249 190 243 213 199 199 204 224 200 199 237 199 218 219 194 230 191 211 226 189 222 278 269 283 215 228 275 275 221 173 185 247 257 223 226 200 219 226 229 236 258 241 256 254 245 251 253 267 269 36 255 310 249 182 151 167 155 145 86 117 126 91 133 125 162 118 62
312 309 299 203 202 228 255 282 290 306 313 280 259 248 241 247 245 266 274 247 270 263 281 261 225 211 212 218 209 204 204 231 215 211 201 207 205 213 226 230 232 210 175 253 224 234 250 213 227 229 210 151 220 238 276 307 197 226 270 238 238 240 238 254 262 264 255 285 305 227 304 247 202 86 82 119 101 118 128 142 104 108 113 132 127 86 82 79
309 296 237 236 220 238 239 252 263 265 266 262 247 244 235 237 259 261 260 261 199 241 264 214 257 205 216 229 219 199 238 192 222 221 211 231 210 218 205 230 234 252 259 256 186 251 254 264 298 206 76 119 247 238 252 275 300 240 192 238 244 230 215 260 286 304 318 330 270 211 232 15 75 325 103 112 137 141 168 125 138 169 149 125 107 84 86 84
302 286 163 220 213 224 214 223 231 232 247 252 251 236 234 236 244 228 254 279 263 254 254 254 247 242 236 237 210 236 182 268 178 233 224 216 230 231 210 203 235 181 224 223 73 259 320 276 249 180 180 234 236 263 249 212 265 46 325 258 244 264 278 273 244 245 245 233 256 265 246 223 140 217 162 186 180 168 157 144 167 153 125 128 109 103 97 88
314 306 230 235 229 223 210 207 203 201 226 255 249 245 245 246 249 269 271 269 305 309 256 257 214 251 237 226 241 219 182 193 240 219 243 230 221 223 205 186 183 145 254 323 320 286 275 274 38 224 214 211 238 311 300 292 282 281 243 197 225 244 253 249 274 280 247 259 275 247 250 262 236 236 186 194 193 163 185 157 162 121 119 121 104 102 106 100
306 287 290 273 253 217 191 193 207 201 239 247 246 258 270 269 256 263 269 268 277 244 276 261 265 233 238 236 233 234 212 211 212 222 249 191 278 3 226 186 141 236 311 344 277 118 212 278 268 272 272 258 141 238 256 252 261 272 267 329 295 222 249 233 253 249 263 261 287 263 262 262 239 243 172 188 200 190 183 191 149 162 150 121 115 108 106 106
267 281 269 248 242 177 167 182 194 227 230 241 248 245 241 253 268 273 297 320 351 299 265 236 251 210 264 238 244 222 243 229 220 244 236 188 224 55 273 256 166 206 245 274 258 283 265 273 278 272 278 302 201 169 246 284 220 217 238 271 267 286 236 267 225 288 285 278 272 261 269 270 349 65 222 176 205 203 194 198 152 177 137 126 120 111 98 97
254 251 251 234 178 149 154 167 214 227 231 240 239 247 260 263 251 246 237 212 264 254 245 287 254 251 218 249 257 263 219 251 231 237 243 161 225 134 254 195 280 161 196 240 282 307 281 29 279 275 288 289 254 194 266 280 294 282 217 230 243 253 314 293 274 247 259 273 269 290 284 35 38 20 98 295 184 196 246 161 168 141 116 117 115 106 99 95
294 277 285 112 154 145 142 193 222 222 232 240 247 260 263 263 270 288 300 312 291 268 288 285 297 289 279 245 227 232 263 244 237 253 248 245 239 190 214 233 200 233 157 222 244 262 262 246 257 282 271 265 277 226 286 314 328 300 317 309 292 291 256 263 282 300 277 283 282 272 264 128 61 12 335 120 85 12 318 166 170 116 118 109 108 105 107 104
275 242 198 149 121 166 179 218 219 231 238 239 240 231 241 307 285 280 287 233 226 269 246 264 266 288 285 254 266 240 245 250 259 251 242 258 211 259 116 145 144 334 343 273 282 71 9 355 295 265 250 262 277 288 261 242 262 283 287 280 283 292 289 238 261 257 294 266 287 284 317 30 323 333 329 315 26 109 241 212 129 117 114 119 117 117 115 110
232 251 105 162 151 197 204 237 235 225 234 247 255 249 257 254 274 275 267 257 257 218 269 253 242 253 242 267 257 265 242 261 262 253 274 245 71 86 88 35 68 131 285 306 293 48 4 256 262 257 275 279 276 273 280 274 235 262 262 263 273 273 277 287 283 301 288 309 301 296 280 73 338 345 358 358 188 190 186 193 124 124 125 129 127 124 124 119
297 288 201 177 175 200 224 233 236 234 238 247 252 268 265 274 265 252 246 253 259 255 235 248 266 246 286 272 265 257 229 278 224 266 256 260 111 92 105 114 194 27 243 36 351 51 286 178 234 274 285 279 270 241 241 251 246 217 250 306 310 304 288 272 276 312 290 272 284 289 275 293 125 314 336 304 339 241 209 150 131 133 134 135 138 132 130 131
299 279 269 178 190 199 223 219 241 255 253 250 257 251 260 244 246 269 297 303 291 260 294 301 297 324 271 265 251 272 252 249 264 233 266 255 110 221 99 33 110 304 50 48 31 6 282 292 280 264 267 272 260 254 305 346 14 337 327 305 275 290 314 304 262 257 265 273 277 271 278 78 164 162 212 184 244 265 277 221 137 140 137 146 140 140 142 140
268 292 234 205 177 197 235 262 271 268 276 292 285 279 270 257 243 250 294 272 284 292 307 307 284 330 298 297 293 276 274 267 252 274 247 246 177 176 151 150 81 76 60 46 35 311 299 285 275 272 274 273 287 306 326 324 316 294 286 288 292 300 298 312 321 282 271 316 296 277 295 273 204 142 203 237 283 291 294 219 154 158 161 147 138 149 150 141
301 278 345 316 326 245 263 234 232 237 251 238 259 252 256 260 268 243 164 264 249 255 272 253 272 263 249 273 283 278 272 281 273 248 246 268 251 48 104 320 131 98 73 14 339 319 272 275 259 267 266 269 283 287 297 298 287 278 276 271 271 268 279 271 254 271 296 295 272 281 300 334 334 332 5 6 325 297 265 220 227 144 145 166 156 161 158 162
317 1 8 28 301 305 282 242 331 297 304 294 265 287 285 275 255 250 155 261 302 306 315 284 262 256 272 259 264 259 274 281 281 284 281 249 273 111 220 125 288 106 129 253 191 227 254 253 253 259 263 269 272 278 282 283 282 289 293 298 299 299 288 286 295 278 268 256 267 291 311 299 293 292 313 318 318 247 247 294 274 209 175 183 170 188 175 180
4 332 356 7 320 298 308 347 316 310 307 309 304 290 269 274 270 270 278 290 338 288 240 279 274 284 273 265 253 265 283 273 278 303 282 285 278 279 268 182 168 127 155 235 269 190 214 251 278 278 280 277 275 275 278 281 286 282 275 267 257 256 258 261 272 274 274 273 279 280 273 274 280 288 287 295 304 303 280 232 332 299 271 210 189 205 201 198
9 351 339 336 319 283 345 317 307 314 282 104 298 257 305 284 283 279 273 236 273 302 339 310 299 290 281 265 283 353 50 21 5 339 9 4 344 306 312 302 302 224 253 262 225 164 170 245 3 297 294 286 287 288 288 288 287 282 282 290 298 298 298 294 283 272 276 286 281 286 301 298 296 322 316 308 295 295 288 248 232 253 277 261 221 200 227 240
344 340 340 314 331 331 337 278 261 277 277 310 317 345 285 300 311 250 258 312 325 1 328 309 335 320 313 298 290 48 47 20 358 11 332 340 296 2 335 333 344 319 305 261 222 133 137 264 297 290 286 278 280 285 283 281 277 276 280 288 291 288 281 272 263 275 291 291 289 294 290 296 311 296 279 274 292 289 293 286 269 262 230 224 237 241 247 245
349 346 327 330 311 316 291 332 290 258 25 10 344 360 22 325 283 329 24 28 311 320 9 351 328 331 304 341 34 34 360 344 342 336 335 320 308 295 282 275 282 284 274 269 299 282 241 252 261 271 273 277 286 289 294 305 303 287 281 287 283 276 284 306 295 271 253 269 265 262 259 345 9 358 342 333 1 338 322 321 341 338 337 297 264 249 235 211